EZY22PT EDDB-LSGG

Flight info

Callsign EZY22PT
Flight time N/A
Altitude 37000
Route KISUC1N KISUC Z117 ORTAG DCT BAMKI/N0429F380 DCT IBAGA DCT DKB DCT ETAGO N869 TEDGO/N0433F390 N869 NATOR DCT LUTIX DCT BENOT
Aircraft A320/M-SDE3FGHIRWY/LB1

Departure

Time 2026-05-01 14:07
Airport Berlin Brandenburg Airport (EDDB)

Arrival

Time N/A
Airport Geneva International Airport (LSGG)
Time Latitude Longitude Altitude Speed Heading
2026-05-01 13:54 52.36322 13.50636 154 ft 0 kts 69°
2026-05-01 13:58 52.36322 13.50635 155 ft 1 kts 69°
2026-05-01 13:58 52.36318 13.50621 155 ft 3 kts 69°
2026-05-01 13:59 52.36316 13.50610 155 ft 3 kts 70°
2026-05-01 13:59 52.36314 13.50601 155 ft 3 kts 71°
2026-05-01 13:59 52.36309 13.50576 155 ft 3 kts 75°
2026-05-01 14:00 52.36304 13.50544 155 ft 3 kts 82°
2026-05-01 14:00 52.36303 13.50512 155 ft 3 kts 102°
2026-05-01 14:00 52.36309 13.50487 155 ft 2 kts 147°
2026-05-01 14:00 52.36313 13.50482 155 ft 0 kts 159°
2026-05-01 14:02 52.36296 13.50493 155 ft 8 kts 159°
2026-05-01 14:03 52.36210 13.50550 156 ft 18 kts 158°
2026-05-01 14:03 52.36085 13.50632 155 ft 20 kts 158°
2026-05-01 14:03 52.35946 13.50719 154 ft 22 kts 160°
2026-05-01 14:03 52.35823 13.50795 154 ft 9 kts 152°
2026-05-01 14:04 52.35771 13.50834 154 ft 8 kts 158°
2026-05-01 14:04 52.35745 13.50915 154 ft 14 kts 77°
2026-05-01 14:04 52.35799 13.51138 155 ft 28 kts 69°
2026-05-01 14:04 52.35853 13.51360 155 ft 32 kts 68°
2026-05-01 14:05 52.35964 13.51826 155 ft 34 kts 69°
2026-05-01 14:05 52.36027 13.52128 155 ft 16 kts 87°
2026-05-01 14:05 52.35969 13.52208 155 ft 11 kts 162°
2026-05-01 14:05 52.35901 13.52244 155 ft 10 kts 161°
2026-05-01 14:06 52.35840 13.52275 155 ft 9 kts 166°
2026-05-01 14:06 52.35812 13.52224 155 ft 7 kts 258°
2026-05-01 14:06 52.35781 13.52068 155 ft 41 kts 249°
2026-05-01 14:06 52.35585 13.51242 155 ft 111 kts 249°
2026-05-01 14:07 52.35239 13.49767 157 ft 164 kts 249°
2026-05-01 14:07 52.34814 13.47987 770 ft 166 kts 250°
2026-05-01 14:07 52.34387 13.46203 1428 ft 175 kts 250°
2026-05-01 14:08 52.32717 13.42699 2186 ft 223 kts 227°
2026-05-01 14:08 52.31626 13.40788 2914 ft 234 kts 228°
2026-05-01 14:08 52.30548 13.38779 3855 ft 236 kts 229°
2026-05-01 14:08 52.29443 13.36762 4778 ft 240 kts 227°
2026-05-01 14:09 52.28335 13.34705 5705 ft 242 kts 229°
2026-05-01 14:09 52.27241 13.32606 6648 ft 243 kts 227°
2026-05-01 14:09 52.26120 13.30496 7441 ft 251 kts 227°
2026-05-01 14:09 52.24978 13.28287 8243 ft 257 kts 231°
2026-05-01 14:10 52.24048 13.25747 8966 ft 270 kts 245°
2026-05-01 14:10 52.23549 13.23844 9239 ft 286 kts 246°
2026-05-01 14:10 52.23157 13.22320 9514 ft 294 kts 246°
2026-05-01 14:10 52.22361 13.19199 10296 ft 302 kts 246°
2026-05-01 14:11 52.21552 13.16001 11076 ft 307 kts 247°
2026-05-01 14:11 52.19904 13.09449 12683 ft 317 kts 247°
2026-05-01 14:11 52.19062 13.06104 13470 ft 322 kts 247°
2026-05-01 14:12 52.18203 13.02712 14260 ft 327 kts 247°
2026-05-01 14:12 52.17330 12.99280 14965 ft 331 kts 247°
2026-05-01 14:12 52.16471 12.95785 15691 ft 334 kts 252°
2026-05-01 14:12 52.15878 12.92041 16051 ft 352 kts 257°